Other Public Products
Issued by NWS Grand Forks, ND

Home | Current Version | Previous Version | Graphics & Text | Print | Product List | Glossary On
Versions: 1 2 3 4 5 6 7 8 9 10 11 12 13 14 15 16 17 18 19 20 21 22 23 24 25 26 27 28 29 30 31 32 33 34 35 36 37 38 39 40 41 42 43 44 45 46 47 48 49 50
487
FPUS83 KFGF 240831
OPUFGF
PRAIRIE TO PINES WEATHER ROUNDUP
NATIONAL WEATHER SERVICE EASTERN NORTH DAKOTA/GRAND FORKS ND
300 AM CDT THU MAY 24 2018

 **SATELLITE DATA USED TO AUGMENT SKY COVER AT AUTOMATED STATIONS**
 *****  WEATHER ACROSS EASTERN NORTH DAKOTA  *****

CITY           SKY/WX    TMP DP  RH WIND       PRES   REMARKS
GRAND FORKS    FAIR      66  61  84 SE8       29.85F
GRND FORKS AFB FAIR      65  61  87 SE8       29.87F
GRND FORKS NWS   N/A     67  61  80 S5        29.83F
BUXTON           N/A     65  64  96 SE6         N/A
DEVILS LAKE    CLOUDY    65  62  90 SE10      29.85F
FARGO          FAIR      73  64  73 S16G26    29.86F
WAHPETON ARPT  FAIR      68  61  77 SE9       29.90F
$$

 *****  WEATHER ACROSS CENTRAL AND WESTERN NORTH DAKOTA  *****

CITY           SKY/WX    TMP DP  RH WIND       PRES   REMARKS
JAMESTOWN      FAIR      66  64  93 SE12      29.85S FOG
BISMARCK       LGT RAIN  67  60  78 W16G28    29.77F
MINOT          FAIR      66  63  90 SW3       29.78F
MINOT AFB      FAIR      62  62 100 CALM      29.77F
GARRISON         N/A     60  59  96 CALM      29.79F
WILLISTON      FAIR      58  57  97 CALM      29.75F
DICKINSON      CLOUDY    60  56  86 CALM      29.81F
HETTINGER      CLOUDY    61  51  70 SE8       29.86R
$$

 *****  OTHER OBSERVATIONS NORTHEAST NORTH DAKOTA  *****

CITY           SKY/WX    TMP DP  RH WIND       PRES   REMARKS
WALHALLA       FAIR      66  64  94 SE9       29.85F
LANGDON        FAIR      64  64 100 SE13      29.87F
CAVALIER         N/A     68  61  77 SE5       29.85F
GRAFTON        FAIR      66  63  88 SE8       29.87F
CANDO          PTSUNNY   66  66 100 SE12      29.86F
FORT TOTTEN      N/A     66  65  95 SE9       29.95S
ROLLA          FAIR      63  63 100 SE14      29.85S
RUGBY          NOT AVBL
 ***** THE ABOVE OBSERVATIONS ARE NON NWS ARE NOT QUALITY
        CONTROLLED AND MAY MIS-REPORT RAIN FOR SNOW...
$$

 *****  OTHER OBSERVATIONS SOUTHEAST NORTH DAKOTA *****

CITY           SKY/WX    TMP DP  RH WIND       PRES   REMARKS
COOPERSTOWN    FAIR      66  64  94 SE10      29.86F
VALLEY CITY    FAIR      68  68 100 S12       29.88F
OAKES            N/A     66  66 100 S8        29.87F
GWINNER          N/A     66  66 100 SE8       29.88S FOG
SHEYENNE NWR     N/A     67  66  96 SE6       29.95S
BUFFALO          N/A     67  63  88 W9          N/A
WYNDMERE       NOT AVBL
 ***** THE ABOVE OBSERVATIONS ARE NON NWS ARE NOT QUALITY
       CONTROLLED AND MAY MIS-REPORT RAIN FOR SNOW...
$$

  *****  WEATHER ACROSS NORTHERN MINNESOTA  *****

CITY           SKY/WX    TMP DP  RH WIND       PRES   REMARKS
FLAG ISLAND    FAIR      66  61  82 S13       29.95F
WARROAD        FAIR      68  63  83 SE9       29.95F
ROSEAU         FAIR      70  63  78 S17G25    29.92F
HALLOCK        FAIR      70  63  78 SE12      29.87F
THF RVR FALLS  MOCLDY    68  60  75 E10       29.93F
HALSTAD          N/A     67  63  84 S9          N/A
FOSSTON        FAIR      68  59  73 SE12      29.92F
BAUDETTE       CLOUDY    65  60  84 SE5       29.98F
WASKISH        LGT RAIN  64  61  88 SE5       29.98F
CROOKSTON      FAIR      64  61  88 SE6       29.88F
$$
  *****  WEATHER ACROSS CENTRAL AND WEST MINNESOTA  *****

CITY           SKY/WX    TMP DP  RH WIND       PRES   REMARKS
BEMIDJI        MOCLDY    65  59  82 E7        29.97F
PARK RAPIDS    MOCLDY    67  62  84 SE8       29.97F
WADENA         FAIR      64  64 100 SE9       29.97F
DETROIT LAKES  FAIR      68  61  77 SE12      29.94F
MOORHEAD       FAIR      72  63  73 S17       29.88F
FERGUS FALLS   FAIR      70  63  78 S14       29.88S
ELBOW LAKE     FAIR      69  64  86 SE13G18   29.94S
MORRIS MN      FAIR      70  66  88 S12       29.93S
STAPLES        FAIR      66  63  88 SE9       29.99S
WHEATON        FAIR      68  64  88 SE13      29.92S
$$
  *****  WEATHER ELSEWHERE ACROSS MINNESOTA  *****

CITY           SKY/WX    TMP DP  RH WIND       PRES   REMARKS
DULUTH         MOCLDY    61  53  75 SE6       30.07F THUNDER
INTRNTL FALLS  FAIR      61  59  93 SE5       30.01F
ELY            FAIR      57  52  82 CALM      30.06F
CLOQUET        RAIN      59  55  88 SE6       30.07F
BRAINERD       MOCLDY    67  62  84 SE10      30.02F
HIBBING        FAIR      55  53  93 CALM      30.05F
ALEXANDRIA     FAIR      73  64  73 S15       29.99F
SAINT CLOUD    FAIR      68  63  84 E5        30.01S
MINNEAPOLIS    FAIR      73  65  75 SE8       30.04S
$$

  *****  WEATHER ACROSS SOUTH DAKOTA  *****

CITY           SKY/WX    TMP DP  RH WIND       PRES   REMARKS
SIOUX FALLS    FAIR      74  63  68 S12       29.98S
BROOKINGS      FAIR      71  61  70 SE13      29.98R
WATERTOWN      FAIR      69  61  75 SE13      29.94S
HURON          FAIR      71  60  68 S10       29.90S
SISSETON         N/A     65  65 100 S9        29.89F
ABERDEEN       FAIR      69  61  75 S8        29.89R
MITCHELL       FAIR      73  61  65 S14G23    29.93S
PIERRE         FAIR      63  59  87 S9        29.87S
MOBRIDGE       FAIR      63  59  87 NW6       29.77F
RAPID CITY     FAIR      54  48  80 SE7       29.92R
$$

  *****  SOME WEATHER IN NEARBY STATES *****

CITY           SKY/WX    TMP DP  RH WIND       PRES   REMARKS
GLASGOW MT     TSTM      60  58  92 NE7       29.78R
GREAT FALLS MT FAIR      54  46  74 S8        29.86S
CHEYENNE WY    FAIR      49  42  77 NW6       30.11S
SCOTTSBLUFF NE FAIR      51  50  96 NW8       30.02R
OMAHA NE       FAIR      71  63  75 SE7       30.03S
DES MOINES IA  MOCLDY    72  64  76 SE6       30.07S
DAVENPORT IA   FAIR      63  56  78 SE6       30.14F
CHICAGO IL     FAIR      60  52  74 CALM      30.16S
EAU CLAIRE WI  FAIR      67  61  81 S6        30.08S
LA CROSSE WI   FAIR      65  62  90 S5        30.10S
$$

  *****  SOME NATIONAL WEATHER *****

CITY           SKY/WX    TMP DP  RH WIND       PRES   REMARKS
LA GUARDIA NY  FAIR      66  52  60 NW6       30.03R
RALEIGH NC     MOCLDY    71  69  93 NE8       30.08S
ATLANTA GA     FOG       70  68  93 CALM      30.07S VSB 1/2
NEW ORLEANS LA FAIR      74  73  97 W3        30.03S
OKLAHOMA CITY  FAIR      70  66  87 SE8       30.06S
ALBUQUERQUE NM FAIR      63  21  20 S6        30.12R
SALT LAKE CITY PTCLDY    57  45  62 SE9       30.02R
LOS ANGELES CA MOCLDY    60  53  77 W6        30.03F
BOISE ID       FAIR      60  55  83 E3        29.93R
SEATTLE WA     MOCLDY    56  51  84 S5        29.96R
$$

*** WEATHER ACROSS MANITOBA...SASKATCHEWAN AND ONTARIO ***
                ***ONTARIO***

CITY           SKY/WX    TMP DP  RH WIND       PRES   REMARKS
GERALDTON      PTCLDY    55  41  58 SW3       30.04S
THUNDER BAY    CLEAR     43  39  87 W3        30.09S
SIOUX LOOKOUT  PTCLDY    54  45  71 S5        30.01F
TORONTO        CLEAR     55  46  71 W5        30.15R
BIG TROUT LK   CLEAR     46  37  71 SW5       29.88S
PICKLE LAKE    NOT AVBL
DRYDEN         CLEAR     64  50  59 S8        30.01S
KENORA         CLEAR     66  54  63 SE6       29.98F
$$
                *** MANITOBA***

CITY           SKY/WX    TMP DP  RH WIND       PRES   REMARKS
BRANDON        MOCLDY    66  59  77 SE7       29.83F
DAUPHIN        CLOUDY    63  55  77 W3        29.82F
ISLAND LAKE    CLEAR     55  46  71 SE2       29.89F
PILOT MOUND      N/A     64  57  77 SE12        N/A
THE PAS        CLEAR     63  54  72 SE7       29.82F
THOMPSON       CLEAR     61  46  59 CALM      29.82S
WINNIPEG       PTCLDY    72  59  64 SE10      29.87F
LYNN LAKE      CLEAR     63  45  51 SW7       29.79F
CHURCHILL      PTCLDY    41  36  81 E12       29.71F
GILLAM         CLOUDY    61  46  59 W7        29.77F
$$
                ***SASKATCHEWAN***

CITY           SKY/WX    TMP DP  RH WIND       PRES   REMARKS
ESTEVAN        MOCLDY    61  59  94 NE12      29.72F
KINDERSLEY     MOCLDY    63  50  63 S6        29.77F
LLOYDMINSTER   CLOUDY    68  52  56 SE12G18   29.78F
PRINCE ALBERT  MOCLDY    64  55  72 CALM      29.83S
REGINA         PTCLDY    61  57  88 E9        29.80F
YORKTON        MOCLDY    61  59  94 E6        29.81F



USA.gov is the U.S. government's official web portal to all federal, state and local government web resources and services.